GW4466 Weather Reports


time (UTC)temp
F
wind
direction
speed
knots
gust
knots
rain 1hr
in
rain 24hr
in
rain mn
in
humidity
%
barometer
mb
20260510203409 83 180 1.7 6.1 0.00 0.00 0.00 31 1012.8
20260510202909 82 158 6.1 6.1 0.00 0.00 0.00 31 1012.8
20260510202410 82 158 6.1 6.1 0.00 0.00 0.00 31 1012.8
20260510201909 82 158 6.1 6.1 0.00 0.00 0.00 31 1012.8
20260510193909 81 103 9.6 10.4 0.00 0.00 0.00 27 1013.2
20260510193409 81 103 9.6 10.4 0.00 0.00 0.00 27 1013.2
20260510181909 79 157 2.6 4.3 0.00 0.00 0.00 45 1013.5
20260510181409 79 157 2.6 4.3 0.00 0.00 0.00 45 1013.9
20260510171909 76 214 4.3 9.6 0.00 0.00 0.00 61 1013.9
20260510171409 76 214 4.3 9.6 0.00 0.00 0.00 61 1014.2
20260510170910 77 245 9.6 9.6 0.00 0.00 0.00 60 1014.6
20260510170409 78 272 4.3 7.0 0.00 0.00 0.00 59 1014.6
20260510165909 78 272 4.3 7.0 0.00 0.00 0.00 59 1014.6
20260510165410 78 272 4.3 7.0 0.00 0.00 0.00 59 1014.6
20260510164909 76 57 0.9 2.6 0.00 0.00 0.00 66 1014.2
20260510162910 77 167 2.6 3.5 0.00 0.00 0.00 65 1014.6
20260510162409 77 167 2.6 3.5 0.00 0.00 0.00 65 1014.2
20260510161909 74 123 1.7 5.2 0.00 0.00 0.00 71 1014.2
20260510161409 74 123 1.7 5.2 0.00 0.00 0.00 71 1014.6
20260510160909 74 252 2.6 5.2 0.00 0.00 0.00 72 1014.2
20260510160409 74 252 2.6 5.2 0.00 0.00 0.00 72 1014.2
20260510155909 74 182 0.9 4.3 0.00 0.00 0.00 72 1014.2
20260510155409 73 284 3.5 4.3 0.00 0.00 0.00 73 1014.2
20260510154909 73 284 3.5 4.3 0.00 0.00 0.00 73 1014.6
20260510152910 72 249 5.2 6.1 0.00 0.00 0.00 78 1014.2
20260510152409 72 249 5.2 6.1 0.00 0.00 0.00 78 1014.2
20260510151909 72 249 5.2 6.1 0.00 0.00 0.00 78 1014.6
20260510150909 73 273 3.5 5.2 0.00 0.00 0.00 75 1014.2
20260510150410 73 273 3.5 5.2 0.00 0.00 0.00 75 1013.9
20260510145909 74 268 4.3 5.2 0.00 0.00 0.00 74 1013.9
20260510145409 74 148 1.7 4.3 0.00 0.00 0.00 72 1014.2
20260510144909 74 148 1.7 4.3 0.00 0.00 0.00 72 1013.9
20260510144409 73 65 1.7 4.3 0.00 0.00 0.00 75 1013.9
20260510143409 73 148 3.5 4.3 0.00 0.00 0.00 73 1013.9
20260510142909 73 148 3.5 4.3 0.00 0.00 0.00 73 1013.9
20260510142409 73 242 0.0 3.5 0.00 0.00 0.00 73 1013.9
20260510141909 72 164 2.6 2.6 0.00 0.00 0.00 75 1013.9
20260510141409 72 164 2.6 2.6 0.00 0.00 0.00 75 1013.9
20260510135909 70 115 2.6 2.6 0.00 0.00 0.00 77 1013.9
20260510135409 70 115 2.6 3.5 0.00 0.00 0.00 77 1013.9
20260510134909 70 115 2.6 3.5 0.00 0.00 0.00 77 1014.2
20260510134409 71 186 1.7 3.5 0.00 0.00 0.00 75 1014.2
20260510133909 70 83 0.9 3.5 0.00 0.00 0.00 78 1013.9
20260510133410 69 130 2.6 3.5 0.00 0.00 0.00 79 1013.9
20260510132909 70 144 2.6 3.5 0.00 0.00 0.00 78 1013.9
20260510132409 70 149 2.6 3.5 0.00 0.00 0.00 79 1013.9
20260510131909 67 96 0.9 3.5 0.00 0.00 0.00 83 1014.2
20260510131409 67 96 0.9 3.5 0.00 0.00 0.00 83 1013.9
20260510130909 67 87 3.5 3.5 0.00 0.00 0.00 84 1014.2
20260510130410 66 135 2.6 2.6 0.00 0.00 0.00 88 1013.9
20260510125909 66 135 2.6 2.6 0.00 0.00 0.00 88 1014.2
20260510125409 66 135 2.6 2.6 0.00 0.00 0.00 88 1013.9
20260510124409 63 82 2.6 3.5 0.00 0.00 0.00 96 1013.9
20260510123909 63 82 2.6 3.5 0.00 0.00 0.00 96 1014.2
20260510123409 62 82 2.6 3.5 0.00 0.00 0.00 98 1013.9
20260510121910 61 155 4.3 5.2 0.00 0.00 0.00 97 1013.9
20260510121409 61 155 4.3 5.2 0.00 0.00 0.00 97 1013.9
20260510120909 60 111 2.6 4.3 0.00 0.00 0.00 97 1013.5
20260510120409 60 111 2.6 4.3 0.00 0.00 0.00 97 1013.5
20260510115909 60 113 3.5 4.3 0.00 0.00 0.00 97 1013.5
20260510115409 60 113 3.5 5.2 0.00 0.00 0.00 97 1013.2
20260510114910 60 113 3.5 5.2 0.00 0.00 0.00 97 1013.2
20260510113409 59 152 1.7 3.5 0.00 0.00 0.00 97 1013.5
20260510112909 59 152 1.7 3.5 0.00 0.00 0.00 97 1012.8
20260510105909 60 113 3.5 5.2 0.00 0.00 0.00 97 1012.5
20260510105409 60 113 3.5 5.2 0.00 0.00 0.00 97 1012.5
20260510104909 60 113 3.5 5.2 0.00 0.00 0.00 97 1012.5
20260510103409 61 69 3.5 5.2 0.00 0.00 0.00 97 1012.1
20260510102909 61 69 3.5 5.2 0.00 0.00 0.00 97 1012.1
20260510100409 61 76 2.6 2.6 0.00 0.00 0.00 96 1011.8
20260510095909 61 76 2.6 2.6 0.00 0.00 0.00 96 1011.8
20260510095409 61 76 2.6 2.6 0.00 0.00 0.00 96 1011.8
20260510094909 61 86 2.6 3.5 0.00 0.00 0.00 96 1011.8
20260510094409 61 86 2.6 3.5 0.00 0.00 0.00 96 1011.5
20260510093909 61 49 3.5 4.3 0.00 0.00 0.00 96 1011.8
20260510093409 61 48 2.6 4.3 0.00 0.00 0.00 96 1011.8
20260510092909 62 25 4.3 4.3 0.00 0.00 0.00 95 1011.8
20260510092409 62 6 3.5 4.3 0.00 0.00 0.00 95 1011.8
20260510091910 61 352 2.6 3.5 0.00 0.00 0.00 94 1011.5
20260510091409 61 352 2.6 3.5 0.00 0.00 0.00 94 1011.5
20260510085909 64 29 0.0 2.6 0.00 0.00 0.00 89 1011.5
20260510085409 64 29 0.0 2.6 0.00 0.00 0.00 89 1011.5
20260510084409 64 243 0.9 1.7 0.00 0.00 0.00 91 1011.5
20260510083909 64 243 0.9 2.6 0.00 0.00 0.00 91 1011.5
20260510083409 64 243 0.9 2.6 0.00 0.00 0.00 91 1011.5
20260510082909 64 245 1.7 2.6 0.00 0.00 0.00 91 1011.5
20260510082409 64 264 0.9 2.6 0.00 0.00 0.00 90 1011.5
20260510081909 64 264 0.9 2.6 0.00 0.00 0.00 90 1011.5
20260510081410 64 236 1.7 2.6 0.00 0.00 0.00 90 1011.1
20260510075909 64 89 0.0 0.9 0.00 0.00 0.00 90 1011.1
20260510075409 64 89 0.0 0.9 0.00 0.00 0.00 90 1011.1
20260510074909 64 89 0.0 0.9 0.00 0.00 0.00 90 1011.1
20260510074409 64 95 0.0 0.9 0.00 0.00 0.00 89 1010.8
20260510073909 64 141 0.0 0.9 0.00 0.00 0.00 89 1010.8
20260510073409 64 255 0.0 2.6 0.00 0.00 0.00 90 1010.8
20260510072909 65 231 1.7 2.6 0.00 0.00 0.00 89 1010.8
20260510072409 65 231 1.7 3.5 0.00 0.00 0.00 89 1010.8
20260510071909 65 231 1.7 3.5 0.00 0.00 0.00 89 1010.8
20260510065409 64 155 0.9 1.7 0.00 0.00 0.00 91 1011.1
20260510064909 64 155 0.9 3.5 0.00 0.00 0.00 91 1011.1
20260510064409 64 155 0.9 3.5 0.00 0.00 0.00 91 1011.1
20260510063909 64 166 2.6 3.5 0.00 0.00 0.00 91 1010.8
20260510063409 64 111 1.7 1.7 0.00 0.00 0.00 90 1011.1
20260510062909 64 111 1.7 1.7 0.00 0.00 0.00 90 1010.8
20260510062409 64 142 0.9 1.7 0.00 0.00 0.00 89 1011.1
20260510061909 64 145 0.9 1.7 0.00 0.00 0.00 89 1010.8
20260510061409 65 139 0.0 1.7 0.00 0.00 0.00 88 1010.8
20260510060909 65 141 0.0 1.7 0.00 0.00 0.00 90 1010.8
20260510060408 65 250 0.0 1.7 0.00 0.00 0.00 90 1010.8
20260510054909 65 186 2.6 2.6 0.00 0.00 0.00 89 1010.8
20260510054409 65 186 2.6 3.5 0.00 0.00 0.00 89 1010.8
20260510053909 65 186 2.6 3.5 0.00 0.00 0.00 89 1010.8
20260510053408 65 180 2.6 3.5 0.00 0.00 0.00 89 1010.8
20260510052909 65 180 2.6 4.3 0.00 0.00 0.00 89 1010.8
20260510052409 65 190 4.3 4.3 0.00 0.00 0.00 89 1010.8
20260510051909 65 180 2.6 4.3 0.00 0.00 0.00 88 1011.1
20260510051409 65 180 2.6 4.3 0.00 0.00 0.00 88 1011.1
20260510045909 65 175 3.5 5.2 0.00 0.00 0.00 88 1011.1
20260510045409 65 175 3.5 7.8 0.00 0.00 0.00 88 1010.8
20260510044909 65 175 3.5 7.8 0.00 0.00 0.00 88 1010.8
20260510044409 66 188 4.3 7.8 0.00 0.00 0.00 87 1010.8
20260510043909 66 188 4.3 7.8 0.00 0.00 0.00 87 1010.8
20260510023909 69 180 4.3 4.3 0.00 0.00 0.00 77 1010.8
20260510023409 69 180 4.3 4.3 0.00 0.00 0.00 77 1010.8
20260510022910 69 180 4.3 4.3 0.00 0.00 0.00 77 1010.4
20260510020909 70 174 5.2 5.2 0.00 0.00 0.00 74 1010.1
20260510020409 70 174 5.2 5.2 0.00 0.00 0.00 74 1010.1
20260510005409 74 182 3.5 3.5 0.00 0.00 0.00 65 1008.7
20260510004909 74 182 3.5 5.2 0.00 0.00 0.00 65 1008.7
20260510004409 74 182 3.5 5.2 0.00 0.00 0.00 65 1008.3
20260510003909 74 207 3.5 5.2 0.00 0.00 0.00 63 1008.3
20260510002909 76 168 0.0 4.3 0.00 0.00 0.00 58 1008.3
20260510002409 76 168 0.0 4.3 0.00 0.00 0.00 58 1008.3
20260510001909 76 168 0.0 4.3 0.00 0.00 0.00 58 1008.3
20260510001409 76 154 0.9 3.5 0.00 0.00 0.00 58 1008.0
20260509231909 78 135 1.7 2.6 0.00 0.00 0.00 52 1008.3
20260509231409 78 135 1.7 2.6 0.00 0.00 0.00 52 1008.3
20260509230909 78 135 1.7 2.6 0.00 0.00 0.00 52 1008.0
20260509230409 77 262 0.9 2.6 0.00 0.00 0.00 54 1008.0
20260509225909 77 262 0.9 4.3 0.00 0.00 0.00 54 1007.6
20260509224909 77 234 2.6 4.3 0.00 0.00 0.00 54 1008.0
20260509224409 77 234 2.6 4.3 0.00 0.00 0.00 54 1007.6
20260509223909 77 127 0.9 3.5 0.00 0.00 0.00 55 1007.6
20260509223409 77 127 0.9 3.5 0.00 0.00 0.00 55 1008.0
20260509222909 77 185 2.6 3.5 0.00 0.00 0.00 52 1007.6
20260509222409 77 185 2.6 3.5 0.00 0.00 0.00 52 1008.0